Tracking 28790 objects as of 18-Apr-2024
HD Live streaming from Space Station
objects crossing your sky now

DELTA 1 DEB

Track DELTA 1 DEB now!
10-day predictions


NORAD ID: 40764
Int'l Code: 1976-077GH
Perigee: 1,509.7 km
Apogee: 1,512.4 km
Inclination: 102.1 °
Period: 116.1 minutes
Semi major axis: 7882 km
RCS: Unknown
Launch date: July 29, 1976
Source: United States (US)
Launch site: AIR FORCE WESTERN TEST RANGE (AFWTR)

Note: This is SATELLITE DEBRIS
Your satellite tracking list
Your tracking list is empty




NASA's NSSDC Master Catalog

Two Line Element Set (TLE):
1 40764U 76077GH  24100.63159847 -.00000019  00000-0  19181-3 0  9992
2 40764 102.0988  72.8994 0001681  91.8109 268.3147 12.40640899802794
Source of the keplerian elements: AFSPC